map of TAK home
Great Circle Mapper logo
TAK - Airport
Location
City:  Takamatsu, Shikoku, Japan
ICAO / IATA:RJOT / TAK

Details
Type:Airport (Aerodrome, Airfield)
Use:Public/Civil
Latitude:3412'51"N (34.214167)
Longitude:13400'56"E (134.015556)
Datum:WGS 1984
Elevation:607 ft (185 m)
Runways:1
Longest:8200 × 200 ft (2499 × 61 m), paved

Time
Time Zone:UTC+9
Local Time:

Weather
METAR:RJOT 010300Z 06004KT 010V090 9999 FEW002 SCT005 BKN008 19/17 Q1013
TAF:RJOT 312314Z 0100/0206 05004KT 9999 FEW008 BKN030
TEMPO 0106/0112 3000 SHRA BR FEW002 SCT005 BKN008
BECMG 0121/0124 27012KT

Related Locations
Nearby:
Farthest:SSMT: 12081 mi / 19442 km
Mostardas, RS, BR

Find:

   beyond  
but within

Other Information
Maps:
NOTAMs:
Links:
Sources:

  
flag of Japan   

Sectional Chart

Flight Planning
at skyvector.com

Satellite Image

Google Maps Satellite View

 

Copyright © 2004-2014 Karl L. Swartz. All rights reserved.
The Great Circle Mapper name and logo are trademarks of the Great Circle Mapper.
All other trademarks mentioned herein belong to their respective owners.
Please see credits for attibutions and further copyright information.

  Follow gcmap on Facebook Follow gcmap on Twitter

hCard Microformat

Geo Microformat